Wetterdaten: Montag, 06.05.2013
Datum Zeit Temperatur Luftfeuchte Luftdruck Regen Wind Richtung Richtung Taupunkt Windchill Windben
06.05.2013 00:00 6,6 C 84 % 1021,2 hPa 0,0 l/m 0,2 km/h (0 Bft) S-SW 202 4,1 C 5,9 C 0,0 km/h (0 Bft)
06.05.2013 00:05 6,3 C 84 % 1021,1 hPa 0,0 l/m 0,0 km/h (0 Bft) SO 135 3,8 C 5,8 C 0,0 km/h (0 Bft)
06.05.2013 00:10 6,3 C 84 % 1021,1 hPa 0,0 l/m 0,0 km/h (0 Bft) O-SO 112 3,8 C 5,5 C 0,0 km/h (0 Bft)
06.05.2013 00:15 6,3 C 85 % 1021,1 hPa 0,0 l/m 0,0 km/h (0 Bft) NO 45 4,0 C 5,5 C 0,0 km/h (0 Bft)
06.05.2013 00:20 6,2 C 85 % 1021,1 hPa 0,0 l/m 0,0 km/h (0 Bft) SO 135 3,9 C 5,4 C 0,0 km/h (0 Bft)
06.05.2013 00:25 5,9 C 86 % 1021,1 hPa 0,0 l/m 0,0 km/h (0 Bft) SO 135 3,7 C 5,4 C 0,0 km/h (0 Bft)
06.05.2013 00:30 5,6 C 86 % 1021,1 hPa 0,0 l/m 0,2 km/h (0 Bft) O-NO 67 3,4 C 5,2 C 2,1 km/h (1 Bft)
06.05.2013 00:35 6,2 C 86 % 1021,1 hPa 0,0 l/m 1,1 km/h (1 Bft) O 90 4,0 C 5,3 C 2,9 km/h (1 Bft)
06.05.2013 00:40 6,4 C 86 % 1021,1 hPa 0,0 l/m 2,9 km/h (1 Bft) O 90 4,2 C 5,4 C 3,5 km/h (1 Bft)
06.05.2013 00:45 6,4 C 87 % 1020,7 hPa 0,0 l/m 3,4 km/h (1 Bft) O 90 4,4 C 5,4 C 4,2 km/h (1 Bft)
06.05.2013 00:50 6,1 C 87 % 1020,7 hPa 0,0 l/m 2,6 km/h (1 Bft) O 90 4,1 C 5,5 C 0,0 km/h (0 Bft)
06.05.2013 00:55 5,7 C 87 % 1020,7 hPa 0,0 l/m 1,4 km/h (1 Bft) NO 45 3,7 C 5,3 C 4,5 km/h (1 Bft)
06.05.2013 01:00 5,9 C 88 % 1020,7 hPa 0,0 l/m 0,5 km/h (0 Bft) O 90 4,1 C 5,1 C 2,1 km/h (1 Bft)
06.05.2013 01:05 6,0 C 87 % 1020,6 hPa 0,0 l/m 1,0 km/h (0 Bft) O 90 4,0 C 5,0 C 2,6 km/h (1 Bft)
06.05.2013 01:10 6,1 C 88 % 1020,6 hPa 0,0 l/m 1,6 km/h (1 Bft) O-SO 112 4,3 C 5,1 C 0,0 km/h (0 Bft)
06.05.2013 01:15 5,7 C 88 % 1020,6 hPa 0,0 l/m 1,1 km/h (1 Bft) SO 135 3,9 C 5,1 C 0,0 km/h (0 Bft)
06.05.2013 01:20 5,6 C 88 % 1020,6 hPa 0,0 l/m 0,0 km/h (0 Bft) O 90 3,8 C 4,9 C 0,0 km/h (0 Bft)
06.05.2013 01:25 5,6 C 88 % 1020,5 hPa 0,0 l/m 0,0 km/h (0 Bft) O 90 3,8 C 4,9 C 0,0 km/h (0 Bft)
06.05.2013 01:30 5,4 C 88 % 1020,5 hPa 0,0 l/m 0,0 km/h (0 Bft) O-NO 67 3,6 C 4,7 C 0,0 km/h (0 Bft)
06.05.2013 01:35 5,7 C 88 % 1020,5 hPa 0,0 l/m 0,0 km/h (0 Bft) N 360 3,9 C 4,8 C 0,0 km/h (0 Bft)
06.05.2013 01:40 5,1 C 88 % 1020,5 hPa 0,0 l/m 0,0 km/h (0 Bft) N-NO 22 3,3 C 4,7 C 0,0 km/h (0 Bft)
06.05.2013 01:45 5,0 C 88 % 1020,5 hPa 0,0 l/m 0,0 km/h (0 Bft) NO 45 3,2 C 4,7 C 0,0 km/h (0 Bft)
06.05.2013 01:50 5,2 C 88 % 1020,5 hPa 0,0 l/m 0,0 km/h (0 Bft) NO 45 3,4 C 4,5 C 0,0 km/h (0 Bft)
06.05.2013 01:55 5,2 C 88 % 1020,5 hPa 0,0 l/m 0,0 km/h (0 Bft) NO 45 3,4 C 4,5 C 0,0 km/h (0 Bft)
06.05.2013 02:00 5,7 C 89 % 1020,5 hPa 0,0 l/m 0,8 km/h (0 Bft) O-SO 112 4,0 C 4,8 C 2,3 km/h (1 Bft)
06.05.2013 02:05 5,3 C 89 % 1020,2 hPa 0,0 l/m 0,8 km/h (0 Bft) N-NO 22 3,6 C 4,8 C 0,0 km/h (0 Bft)
06.05.2013 02:10 4,6 C 89 % 1020,2 hPa 0,0 l/m 0,2 km/h (0 Bft) N-NO 22 2,9 C 4,5 C 0,0 km/h (0 Bft)
06.05.2013 02:15 4,4 C 89 % 1020,2 hPa 0,0 l/m 0,0 km/h (0 Bft) N-NO 22 2,7 C 4,1 C 0,0 km/h (0 Bft)
06.05.2013 02:20 4,5 C 89 % 1020,2 hPa 0,0 l/m 0,0 km/h (0 Bft) O-NO 67 2,8 C 4,0 C 0,0 km/h (0 Bft)
06.05.2013 02:25 5,5 C 89 % 1019,8 hPa 0,0 l/m 0,6 km/h (0 Bft) O-NO 67 3,8 C 4,1 C 2,1 km/h (1 Bft)
06.05.2013 02:30 4,9 C 89 % 1019,8 hPa 0,0 l/m 0,6 km/h (0 Bft) O 90 3,2 C 4,3 C 0,0 km/h (0 Bft)
06.05.2013 02:35 4,7 C 89 % 1019,8 hPa 0,0 l/m 0,2 km/h (0 Bft) N-NW 337 3,0 C 4,2 C 0,0 km/h (0 Bft)
06.05.2013 02:40 4,4 C 89 % 1019,8 hPa 0,0 l/m 0,0 km/h (0 Bft) NO 45 2,7 C 4,0 C 0,0 km/h (0 Bft)
06.05.2013 02:45 4,2 C 89 % 1019,7 hPa 0,0 l/m 0,0 km/h (0 Bft) NO 45 2,6 C 3,9 C 0,0 km/h (0 Bft)
06.05.2013 02:50 4,2 C 89 % 1019,7 hPa 0,0 l/m 0,0 km/h (0 Bft) NO 45 2,6 C 3,9 C 0,0 km/h (0 Bft)
06.05.2013 02:55 4,2 C 89 % 1019,7 hPa 0,0 l/m 0,0 km/h (0 Bft) O 90 2,6 C 3,7 C 0,0 km/h (0 Bft)
06.05.2013 03:00 4,4 C 89 % 1019,7 hPa 0,0 l/m 0,2 km/h (0 Bft) O-SO 112 2,7 C 4,0 C 0,0 km/h (0 Bft)
06.05.2013 03:05 4,4 C 90 % 1019,5 hPa 0,0 l/m 0,2 km/h (0 Bft) NW 315 2,9 C 4,1 C 0,0 km/h (0 Bft)
06.05.2013 03:10 4,1 C 90 % 1019,5 hPa 0,0 l/m 0,0 km/h (0 Bft) O-NO 67 2,6 C 3,9 C 0,0 km/h (0 Bft)
06.05.2013 03:15 4,3 C 90 % 1019,5 hPa 0,0 l/m 0,0 km/h (0 Bft) N 360 2,8 C 3,7 C 0,0 km/h (0 Bft)
06.05.2013 03:20 4,6 C 90 % 1019,5 hPa 0,0 l/m 0,3 km/h (0 Bft) N 360 3,1 C 3,9 C 0,0 km/h (0 Bft)
06.05.2013 03:25 4,2 C 90 % 1019,3 hPa 0,0 l/m 0,3 km/h (0 Bft) N-NW 337 2,7 C 4,0 C 0,0 km/h (0 Bft)
06.05.2013 03:30 4,2 C 90 % 1019,3 hPa 0,0 l/m 0,6 km/h (0 Bft) O 90 2,7 C 4,1 C 0,0 km/h (0 Bft)
06.05.2013 03:35 4,2 C 91 % 1019,3 hPa 0,0 l/m 0,6 km/h (0 Bft) N 360 2,9 C 4,1 C 0,0 km/h (0 Bft)
06.05.2013 03:40 4,2 C 91 % 1019,3 hPa 0,0 l/m 0,2 km/h (0 Bft) SO 135 2,9 C 4,1 C 1,8 km/h (1 Bft)
06.05.2013 03:45 4,2 C 91 % 1019,2 hPa 0,0 l/m 0,2 km/h (0 Bft) O-SO 112 2,9 C 4,1 C 0,0 km/h (0 Bft)
06.05.2013 03:50 4,5 C 91 % 1019,2 hPa 0,0 l/m 0,0 km/h (0 Bft) NO 45 3,2 C 4,0 C 0,0 km/h (0 Bft)
06.05.2013 03:55 4,6 C 91 % 1019,2 hPa 0,0 l/m 0,0 km/h (0 Bft) NO 45 3,3 C 3,9 C 0,0 km/h (0 Bft)
06.05.2013 04:00 4,3 C 91 % 1019,2 hPa 0,0 l/m 0,0 km/h (0 Bft) O-SO 112 3,0 C 3,7 C 0,0 km/h (0 Bft)
06.05.2013 04:05 3,8 C 91 % 1019,1 hPa 0,0 l/m 0,0 km/h (0 Bft) O-NO 67 2,5 C 3,5 C 1,9 km/h (1 Bft)
06.05.2013 04:10 4,8 C 92 % 1019,1 hPa 0,0 l/m 1,8 km/h (1 Bft) O-NO 67 3,6 C 3,8 C 4,0 km/h (1 Bft)
06.05.2013 04:15 5,1 C 92 % 1019,1 hPa 0,0 l/m 2,9 km/h (1 Bft) NO 45 3,9 C 4,1 C 4,8 km/h (1 Bft)
06.05.2013 04:20 4,1 C 92 % 1019,1 hPa 0,0 l/m 1,4 km/h (1 Bft) O-SO 112 2,9 C 4,0 C 0,0 km/h (0 Bft)
06.05.2013 04:25 3,9 C 92 % 1018,9 hPa 0,0 l/m 0,2 km/h (0 Bft) NO 45 2,7 C 3,6 C 0,0 km/h (0 Bft)
06.05.2013 04:30 4,6 C 92 % 1018,9 hPa 0,0 l/m 1,1 km/h (1 Bft) O 90 3,4 C 3,6 C 4,5 km/h (1 Bft)
06.05.2013 04:35 4,5 C 93 % 1018,9 hPa 0,0 l/m 1,9 km/h (1 Bft) N-NO 22 3,5 C 3,8 C 5,0 km/h (1 Bft)
06.05.2013 04:40 3,8 C 93 % 1018,9 hPa 0,0 l/m 1,1 km/h (1 Bft) O 90 2,8 C 3,6 C 0,0 km/h (0 Bft)
06.05.2013 04:45 3,8 C 93 % 1018,6 hPa 0,0 l/m 0,0 km/h (0 Bft) N-NO 22 2,8 C 3,3 C 0,0 km/h (0 Bft)
06.05.2013 04:50 4,2 C 92 % 1018,6 hPa 0,0 l/m 0,8 km/h (0 Bft) N-NO 22 3,0 C 3,3 C 0,0 km/h (0 Bft)
06.05.2013 04:55 3,8 C 93 % 1018,6 hPa 0,0 l/m 0,8 km/h (0 Bft) N-NO 22 2,8 C 3,3 C 0,0 km/h (0 Bft)
06.05.2013 05:00 4,0 C 92 % 1018,6 hPa 0,0 l/m 0,0 km/h (0 Bft) O-NO 67 2,8 C 3,2 C 0,0 km/h (0 Bft)
06.05.2013 05:05 3,8 C 92 % 1018,7 hPa 0,0 l/m 0,0 km/h (0 Bft) N-NO 22 2,6 C 3,2 C 0,0 km/h (0 Bft)
06.05.2013 05:10 3,5 C 92 % 1018,7 hPa 0,0 l/m 0,0 km/h (0 Bft) N 360 2,3 C 3,1 C 0,0 km/h (0 Bft)
06.05.2013 05:15 3,5 C 92 % 1018,7 hPa 0,0 l/m 0,0 km/h (0 Bft) N 360 2,3 C 3,0 C 0,0 km/h (0 Bft)
06.05.2013 05:20 3,2 C 92 % 1018,7 hPa 0,0 l/m 0,0 km/h (0 Bft) N 360 2,0 C 2,9 C 0,0 km/h (0 Bft)
06.05.2013 05:25 3,2 C 92 % 1018,5 hPa 0,0 l/m 0,0 km/h (0 Bft) N 360 2,0 C 2,7 C 0,0 km/h (0 Bft)
06.05.2013 05:30 3,5 C 92 % 1018,5 hPa 0,0 l/m 0,0 km/h (0 Bft) N 360 2,3 C 2,6 C 0,0 km/h (0 Bft)
06.05.2013 05:35 3,3 C 92 % 1018,5 hPa 0,0 l/m 0,0 km/h (0 Bft) N-NW 337 2,1 C 2,6 C 0,0 km/h (0 Bft)
06.05.2013 05:40 3,4 C 92 % 1018,5 hPa 0,0 l/m 0,0 km/h (0 Bft) O 90 2,2 C 2,5 C 0,0 km/h (0 Bft)
06.05.2013 05:45 3,2 C 92 % 1018,6 hPa 0,0 l/m 0,0 km/h (0 Bft) NO 45 2,0 C 2,4 C 0,0 km/h (0 Bft)
06.05.2013 05:50 3,1 C 92 % 1018,6 hPa 0,0 l/m 0,0 km/h (0 Bft) NO 45 1,9 C 2,3 C 0,0 km/h (0 Bft)
06.05.2013 05:55 3,0 C 92 % 1018,6 hPa 0,0 l/m 0,0 km/h (0 Bft) N 360 1,8 C 2,3 C 0,0 km/h (0 Bft)
06.05.2013 06:00 2,9 C 93 % 1018,6 hPa 0,0 l/m 0,0 km/h (0 Bft) N 360 1,9 C 2,3 C 0,0 km/h (0 Bft)
06.05.2013 06:05 3,0 C 92 % 1018,5 hPa 0,0 l/m 0,0 km/h (0 Bft) NO 45 1,8 C 2,3 C 0,0 km/h (0 Bft)
06.05.2013 06:10 3,9 C 93 % 1018,5 hPa 0,0 l/m 0,6 km/h (0 Bft) O 90 2,9 C 2,5 C 3,1 km/h (1 Bft)
06.05.2013 06:15 3,6 C 93 % 1018,5 hPa 0,0 l/m 0,6 km/h (0 Bft) O 90 2,6 C 2,8 C 0,0 km/h (0 Bft)
06.05.2013 06:20 3,7 C 93 % 1018,5 hPa 0,0 l/m 0,3 km/h (0 Bft) N-NO 22 2,7 C 2,8 C 0,0 km/h (0 Bft)
06.05.2013 06:25 3,4 C 93 % 1018,6 hPa 0,0 l/m 0,0 km/h (0 Bft) N-NO 22 2,4 C 2,7 C 0,0 km/h (0 Bft)
06.05.2013 06:30 3,5 C 93 % 1018,6 hPa 0,0 l/m 0,0 km/h (0 Bft) N-NO 22 2,5 C 2,9 C 0,0 km/h (0 Bft)
06.05.2013 06:35 3,7 C 93 % 1018,6 hPa 0,0 l/m 0,0 km/h (0 Bft) N-NO 22 2,7 C 3,3 C 0,0 km/h (0 Bft)
06.05.2013 06:40 4,9 C 92 % 1018,6 hPa 0,0 l/m 0,0 km/h (0 Bft) N-NO 22 3,7 C 4,3 C 0,0 km/h (0 Bft)
06.05.2013 06:45 4,6 C 92 % 1019,2 hPa 0,0 l/m 0,0 km/h (0 Bft) NO 45 3,4 C 5,1 C 0,0 km/h (0 Bft)
06.05.2013 06:50 4,8 C 92 % 1019,2 hPa 0,0 l/m 0,2 km/h (0 Bft) N 360 3,6 C 5,7 C 0,0 km/h (0 Bft)
06.05.2013 06:55 5,3 C 92 % 1019,2 hPa 0,0 l/m 0,2 km/h (0 Bft) N-NW 337 4,1 C 6,3 C 0,0 km/h (0 Bft)
06.05.2013 07:00 6,6 C 91 % 1019,2 hPa 0,0 l/m 0,0 km/h (0 Bft) N 360 5,2 C 6,9 C 0,0 km/h (0 Bft)
06.05.2013 07:05 6,3 C 90 % 1019,2 hPa 0,0 l/m 0,0 km/h (0 Bft) N-NO 22 4,8 C 7,2 C 0,0 km/h (0 Bft)
06.05.2013 07:10 6,3 C 90 % 1019,2 hPa 0,0 l/m 0,0 km/h (0 Bft) N-NW 337 4,8 C 7,8 C 0,0 km/h (0 Bft)
06.05.2013 07:15 6,6 C 90 % 1019,2 hPa 0,0 l/m 0,0 km/h (0 Bft) NO 45 5,1 C 8,1 C 0,0 km/h (0 Bft)
06.05.2013 07:20 6,1 C 90 % 1019,2 hPa 0,0 l/m 0,0 km/h (0 Bft) N 360 4,6 C 9,1 C 0,0 km/h (0 Bft)
06.05.2013 07:25 6,1 C 90 % 1019,2 hPa 0,0 l/m 0,0 km/h (0 Bft) SO 135 4,6 C 9,2 C 0,0 km/h (0 Bft)
06.05.2013 07:30 7,1 C 90 % 1019,2 hPa 0,0 l/m 0,0 km/h (0 Bft) S 180 5,6 C 8,8 C 1,9 km/h (1 Bft)
06.05.2013 07:35 9,1 C 89 % 1019,2 hPa 0,0 l/m 0,2 km/h (0 Bft) W-SW 247 7,4 C 9,0 C 0,0 km/h (0 Bft)
06.05.2013 07:40 10,3 C 82 % 1019,2 hPa 0,0 l/m 0,2 km/h (0 Bft) O-NO 67 7,4 C 10,2 C 0,0 km/h (0 Bft)
06.05.2013 07:45 11,5 C 81 % 1019,2 hPa 0,0 l/m 0,0 km/h (0 Bft) O-NO 67 8,4 C 11,6 C 0,0 km/h (0 Bft)
06.05.2013 07:50 13,7 C 78 % 1019,2 hPa 0,0 l/m 0,6 km/h (0 Bft) S 180 9,9 C 12,6 C 2,4 km/h (1 Bft)
06.05.2013 07:55 14,2 C 70 % 1019,2 hPa 0,0 l/m 1,3 km/h (1 Bft) SW 225 8,8 C 13,2 C 2,7 km/h (1 Bft)
06.05.2013 08:00 13,2 C 69 % 1019,2 hPa 0,0 l/m 2,3 km/h (1 Bft) W-SW 247 7,6 C 12,9 C 2,3 km/h (1 Bft)
06.05.2013 08:05 13,7 C 68 % 1019,3 hPa 0,0 l/m 2,4 km/h (1 Bft) S 180 7,9 C 12,8 C 2,7 km/h (1 Bft)
06.05.2013 08:10 14,2 C 66 % 1019,3 hPa 0,0 l/m 2,1 km/h (1 Bft) S-SW 202 7,9 C 13,0 C 2,7 km/h (1 Bft)
06.05.2013 08:15 15,0 C 65 % 1019,3 hPa 0,0 l/m 2,1 km/h (1 Bft) S-SO 157 8,5 C 13,3 C 2,6 km/h (1 Bft)
06.05.2013 08:20 15,9 C 64 % 1019,3 hPa 0,0 l/m 1,4 km/h (1 Bft) W-SW 247 9,1 C 14,2 C 3,2 km/h (1 Bft)
06.05.2013 08:25 15,2 C 62 % 1019,1 hPa 0,0 l/m 1,6 km/h (1 Bft) W 270 8,0 C 14,8 C 2,1 km/h (1 Bft)
06.05.2013 08:30 13,7 C 67 % 1019,1 hPa 0,0 l/m 1,9 km/h (1 Bft) SW 225 7,7 C 13,9 C 1,9 km/h (1 Bft)
06.05.2013 08:35 12,2 C 68 % 1019,1 hPa 0,0 l/m 1,3 km/h (1 Bft) W-SW 247 6,5 C 13,5 C 0,0 km/h (0 Bft)
06.05.2013 08:40 14,6 C 69 % 1019,1 hPa 0,0 l/m 1,0 km/h (0 Bft) S-SW 202 9,0 C 13,2 C 0,0 km/h (0 Bft)
06.05.2013 08:45 12,3 C 68 % 1019,4 hPa 0,0 l/m 1,4 km/h (1 Bft) W-SW 247 6,6 C 13,5 C 0,0 km/h (0 Bft)
06.05.2013 08:50 11,2 C 72 % 1019,4 hPa 0,0 l/m 2,3 km/h (1 Bft) S-SW 202 6,3 C 12,5 C 2,7 km/h (1 Bft)
06.05.2013 08:55 14,4 C 71 % 1019,4 hPa 0,0 l/m 1,8 km/h (1 Bft) W-SW 247 9,2 C 12,5 C 1,8 km/h (1 Bft)
06.05.2013 09:00 12,8 C 68 % 1019,4 hPa 0,0 l/m 2,4 km/h (1 Bft) S 180 7,0 C 13,8 C 3,1 km/h (1 Bft)
06.05.2013 09:05 14,6 C 67 % 1019,5 hPa 0,0 l/m 2,6 km/h (1 Bft) W-SW 247 8,5 C 13,6 C 6,0 km/h (2 Bft)
06.05.2013 09:10 16,8 C 63 % 1019,5 hPa 0,0 l/m 1,1 km/h (1 Bft) SO 135 9,7 C 15,5 C 0,0 km/h (0 Bft)
06.05.2013 09:15 16,7 C 59 % 1019,5 hPa 0,0 l/m 1,1 km/h (1 Bft) W-SW 247 8,6 C 16,6 C 1,9 km/h (1 Bft)
06.05.2013 09:20 18,2 C 57 % 1019,5 hPa 0,0 l/m 1,3 km/h (1 Bft) W-SW 247 9,5 C 17,4 C 3,5 km/h (1 Bft)
06.05.2013 09:25 18,1 C 57 % 1019,3 hPa 0,0 l/m 1,1 km/h (1 Bft) W-NW 292 9,4 C 17,9 C 0,0 km/h (0 Bft)
06.05.2013 09:30 17,8 C 56 % 1019,3 hPa 0,0 l/m 1,9 km/h (1 Bft) S 180 8,9 C 18,3 C 2,7 km/h (1 Bft)
06.05.2013 09:35 18,8 C 55 % 1019,3 hPa 0,0 l/m 1,8 km/h (1 Bft) O-SO 112 9,6 C 18,5 C 0,0 km/h (0 Bft)
06.05.2013 09:40 18,2 C 55 % 1019,3 hPa 0,0 l/m 1,8 km/h (1 Bft) S-SO 157 9,0 C 19,3 C 1,8 km/h (1 Bft)
06.05.2013 09:45 18,1 C 56 % 1019,1 hPa 0,0 l/m 1,3 km/h (1 Bft) W 270 9,2 C 19,1 C 3,4 km/h (1 Bft)
06.05.2013 09:50 18,4 C 52 % 1019,1 hPa 0,0 l/m 2,3 km/h (1 Bft) W 270 8,4 C 19,0 C 4,3 km/h (1 Bft)
06.05.2013 09:55 18,1 C 52 % 1019,1 hPa 0,0 l/m 2,7 km/h (1 Bft) N 360 8,1 C 19,0 C 2,4 km/h (1 Bft)
06.05.2013 10:00 17,8 C 53 % 1019,1 hPa 0,0 l/m 2,7 km/h (1 Bft) S 180 8,1 C 19,0 C 1,9 km/h (1 Bft)
06.05.2013 10:05 18,0 C 50 % 1019,3 hPa 0,0 l/m 2,9 km/h (1 Bft) W 270 7,4 C 19,1 C 2,7 km/h (1 Bft)
06.05.2013 10:10 19,2 C 52 % 1019,3 hPa 0,0 l/m 1,9 km/h (1 Bft) N-NW 337 9,1 C 19,6 C 0,0 km/h (0 Bft)
06.05.2013 10:15 18,3 C 52 % 1019,3 hPa 0,0 l/m 2,3 km/h (1 Bft) SW 225 8,3 C 19,7 C 4,5 km/h (1 Bft)
06.05.2013 10:20 18,6 C 49 % 1019,3 hPa 0,0 l/m 2,7 km/h (1 Bft) S 180 7,7 C 19,8 C 0,0 km/h (0 Bft)
06.05.2013 10:25 17,9 C 50 % 1019,8 hPa 0,0 l/m 3,5 km/h (1 Bft) NO 45 7,3 C 19,9 C 5,3 km/h (1 Bft)
06.05.2013 10:30 18,8 C 52 % 1019,8 hPa 0,0 l/m 3,5 km/h (1 Bft) SW 225 8,7 C 20,4 C 5,3 km/h (1 Bft)
06.05.2013 10:35 19,5 C 49 % 1019,8 hPa 0,0 l/m 3,1 km/h (1 Bft) NW 315 8,5 C 20,5 C 8,7 km/h (2 Bft)
06.05.2013 10:40 19,7 C 49 % 1019,8 hPa 0,0 l/m 2,6 km/h (1 Bft) N-NW 337 8,7 C 21,5 C 4,3 km/h (1 Bft)
06.05.2013 10:45 19,0 C 49 % 1019,6 hPa 0,0 l/m 2,1 km/h (1 Bft) NO 45 8,0 C 21,7 C 4,0 km/h (1 Bft)
06.05.2013 10:50 18,1 C 50 % 1019,6 hPa 0,0 l/m 2,7 km/h (1 Bft) N-NO 22 7,5 C 21,6 C 3,9 km/h (1 Bft)
06.05.2013 10:55 18,0 C 50 % 1019,6 hPa 0,0 l/m 2,7 km/h (1 Bft) W-NW 292 7,4 C 21,0 C 5,1 km/h (1 Bft)
06.05.2013 11:00 18,5 C 51 % 1019,6 hPa 0,0 l/m 3,5 km/h (1 Bft) W 270 8,2 C 19,6 C 3,5 km/h (1 Bft)
06.05.2013 11:05 19,6 C 48 % 1020,1 hPa 0,0 l/m 3,5 km/h (1 Bft) NW 315 8,3 C 20,0 C 3,5 km/h (1 Bft)
06.05.2013 11:10 20,3 C 49 % 1020,1 hPa 0,0 l/m 3,4 km/h (1 Bft) W 270 9,2 C 21,2 C 4,7 km/h (1 Bft)
06.05.2013 11:15 20,6 C 49 % 1020,1 hPa 0,0 l/m 3,7 km/h (1 Bft) W 270 9,5 C 20,9 C 2,6 km/h (1 Bft)
06.05.2013 11:20 21,1 C 46 % 1020,1 hPa 0,0 l/m 4,3 km/h (1 Bft) SW 225 9,0 C 21,2 C 8,2 km/h (2 Bft)
06.05.2013 11:25 19,5 C 49 % 1019,9 hPa 0,0 l/m 4,3 km/h (1 Bft) W 270 8,5 C 20,9 C 8,9 km/h (2 Bft)
06.05.2013 11:30 19,9 C 50 % 1019,9 hPa 0,0 l/m 4,7 km/h (1 Bft) S-SW 202 9,2 C 20,4 C 5,6 km/h (1 Bft)
06.05.2013 11:35 19,5 C 49 % 1019,9 hPa 0,0 l/m 4,5 km/h (1 Bft) NW 315 8,5 C 19,5 C 9,7 km/h (2 Bft)
06.05.2013 11:40 21,0 C 49 % 1019,9 hPa 0,0 l/m 4,5 km/h (1 Bft) S-SW 202 9,9 C 19,6 C 6,8 km/h (2 Bft)
06.05.2013 11:45 19,7 C 49 % 1020,1 hPa 0,0 l/m 4,7 km/h (1 Bft) S-SW 202 8,7 C 19,4 C 10,1 km/h (2 Bft)
06.05.2013 11:50 18,8 C 54 % 1020,1 hPa 0,0 l/m 5,0 km/h (1 Bft) S-SW 202 9,3 C 19,8 C 5,6 km/h (1 Bft)
06.05.2013 11:55 20,4 C 51 % 1020,1 hPa 0,0 l/m 5,0 km/h (1 Bft) S-SW 202 9,9 C 19,8 C 6,1 km/h (2 Bft)
06.05.2013 12:00 21,0 C 49 % 1020,1 hPa 0,0 l/m 5,3 km/h (1 Bft) W-SW 247 9,9 C 20,5 C 3,7 km/h (1 Bft)
06.05.2013 12:05 19,9 C 49 % 1020,0 hPa 0,0 l/m 4,5 km/h (1 Bft) W-SW 247 8,9 C 20,7 C 7,1 km/h (2 Bft)
06.05.2013 12:10 20,8 C 49 % 1020,0 hPa 0,0 l/m 4,3 km/h (1 Bft) NW 315 9,7 C 21,2 C 0,0 km/h (0 Bft)
06.05.2013 12:15 20,9 C 49 % 1020,0 hPa 0,0 l/m 4,5 km/h (1 Bft) W 270 9,8 C 22,2 C 10,1 km/h (2 Bft)
06.05.2013 12:20 17,4 C 54 % 1020,0 hPa 0,0 l/m 3,7 km/h (1 Bft) W 270 8,0 C 21,4 C 5,1 km/h (1 Bft)
06.05.2013 12:25 17,1 C 58 % 1019,8 hPa 0,0 l/m 3,7 km/h (1 Bft) W 270 8,8 C 20,1 C 3,9 km/h (1 Bft)
06.05.2013 12:30 16,9 C 57 % 1019,8 hPa 0,0 l/m 3,4 km/h (1 Bft) O-SO 112 8,3 C 19,4 C 1,8 km/h (1 Bft)
06.05.2013 12:35 16,6 C 59 % 1019,8 hPa 0,0 l/m 3,4 km/h (1 Bft) W 270 8,6 C 19,1 C 3,2 km/h (1 Bft)
06.05.2013 12:40 16,3 C 62 % 1019,8 hPa 0,0 l/m 4,0 km/h (1 Bft) S-SW 202 9,0 C 17,9 C 6,9 km/h (2 Bft)
06.05.2013 12:45 16,1 C 63 % 1019,9 hPa 0,0 l/m 5,1 km/h (1 Bft) S 180 9,1 C 17,4 C 6,8 km/h (2 Bft)
06.05.2013 12:50 15,7 C 65 % 1019,9 hPa 0,0 l/m 5,8 km/h (2 Bft) W-SW 247 9,1 C 16,6 C 8,0 km/h (2 Bft)
06.05.2013 12:55 15,8 C 66 % 1019,9 hPa 0,0 l/m 5,6 km/h (1 Bft) W-NW 292 9,5 C 16,4 C 10,8 km/h (2 Bft)
06.05.2013 13:00 15,7 C 65 % 1019,9 hPa 0,0 l/m 5,0 km/h (1 Bft) W-SW 247 9,1 C 16,6 C 3,9 km/h (1 Bft)
06.05.2013 13:05 15,6 C 65 % 1019,8 hPa 0,0 l/m 4,5 km/h (1 Bft) N 360 9,0 C 16,6 C 2,4 km/h (1 Bft)
06.05.2013 13:10 15,9 C 65 % 1019,8 hPa 0,0 l/m 3,9 km/h (1 Bft) W 270 9,3 C 17,0 C 7,1 km/h (2 Bft)
06.05.2013 13:15 16,3 C 63 % 1019,8 hPa 0,0 l/m 4,2 km/h (1 Bft) W-NW 292 9,2 C 17,1 C 4,7 km/h (1 Bft)
06.05.2013 13:20 16,1 C 64 % 1019,8 hPa 0,0 l/m 4,5 km/h (1 Bft) N-NW 337 9,3 C 17,4 C 5,3 km/h (1 Bft)
06.05.2013 13:25 16,4 C 64 % 1019,8 hPa 0,0 l/m 4,0 km/h (1 Bft) W 270 9,6 C 17,4 C 7,2 km/h (2 Bft)
06.05.2013 13:30 16,8 C 61 % 1019,8 hPa 0,0 l/m 4,0 km/h (1 Bft) W 270 9,2 C 17,6 C 3,5 km/h (1 Bft)
06.05.2013 13:35 17,4 C 59 % 1019,8 hPa 0,0 l/m 4,3 km/h (1 Bft) W-NW 292 9,3 C 18,2 C 7,7 km/h (2 Bft)
06.05.2013 13:40 17,7 C 59 % 1019,8 hPa 0,0 l/m 4,2 km/h (1 Bft) S-SW 202 9,6 C 19,0 C 4,3 km/h (1 Bft)
06.05.2013 13:45 18,0 C 59 % 1019,6 hPa 0,0 l/m 4,0 km/h (1 Bft) W-SW 247 9,9 C 19,3 C 3,5 km/h (1 Bft)
06.05.2013 13:50 17,7 C 60 % 1019,6 hPa 0,0 l/m 2,9 km/h (1 Bft) W-SW 247 9,8 C 19,5 C 2,7 km/h (1 Bft)
06.05.2013 13:55 17,3 C 59 % 1019,6 hPa 0,0 l/m 2,3 km/h (1 Bft) S 180 9,2 C 19,2 C 0,0 km/h (0 Bft)
06.05.2013 14:00 17,1 C 60 % 1019,6 hPa 0,0 l/m 1,4 km/h (1 Bft) W-SW 247 9,3 C 19,4 C 2,6 km/h (1 Bft)
06.05.2013 14:05 17,3 C 61 % 1019,5 hPa 0,0 l/m 1,6 km/h (1 Bft) S 180 9,7 C 19,2 C 3,5 km/h (1 Bft)
06.05.2013 14:10 16,7 C 60 % 1019,5 hPa 0,0 l/m 2,7 km/h (1 Bft) W-SW 247 8,9 C 18,6 C 2,3 km/h (1 Bft)
06.05.2013 14:15 16,3 C 61 % 1019,5 hPa 0,0 l/m 3,5 km/h (1 Bft) W-SW 247 8,8 C 18,0 C 4,2 km/h (1 Bft)
06.05.2013 14:20 16,4 C 62 % 1019,5 hPa 0,0 l/m 3,5 km/h (1 Bft) W 270 9,1 C 17,6 C 4,0 km/h (1 Bft)
06.05.2013 14:25 16,2 C 62 % 1019,4 hPa 0,0 l/m 2,7 km/h (1 Bft) W-NW 292 8,9 C 17,6 C 1,9 km/h (1 Bft)
06.05.2013 14:30 16,9 C 62 % 1019,4 hPa 0,0 l/m 3,1 km/h (1 Bft) W-SW 247 9,6 C 17,7 C 3,9 km/h (1 Bft)
06.05.2013 14:35 17,5 C 61 % 1019,4 hPa 0,0 l/m 3,2 km/h (1 Bft) S 180 9,9 C 18,0 C 1,9 km/h (1 Bft)
06.05.2013 14:40 17,6 C 60 % 1019,4 hPa 0,0 l/m 2,4 km/h (1 Bft) S 180 9,7 C 19,0 C 2,6 km/h (1 Bft)
06.05.2013 14:45 17,7 C 59 % 1019,3 hPa 0,0 l/m 2,6 km/h (1 Bft) W 270 9,6 C 19,1 C 3,2 km/h (1 Bft)
06.05.2013 14:50 18,0 C 58 % 1019,3 hPa 0,0 l/m 3,9 km/h (1 Bft) SW 225 9,6 C 19,5 C 7,6 km/h (2 Bft)
06.05.2013 14:55 18,0 C 59 % 1019,3 hPa 0,0 l/m 3,4 km/h (1 Bft) S 180 9,9 C 19,5 C 0,0 km/h (0 Bft)
06.05.2013 15:00 17,6 C 58 % 1019,3 hPa 0,0 l/m 2,1 km/h (1 Bft) W-SW 247 9,2 C 19,8 C 0,0 km/h (0 Bft)
06.05.2013 15:05 17,5 C 59 % 1019,1 hPa 0,0 l/m 2,1 km/h (1 Bft) SW 225 9,4 C 19,6 C 3,2 km/h (1 Bft)
06.05.2013 15:10 17,5 C 60 % 1019,1 hPa 0,0 l/m 2,6 km/h (1 Bft) S 180 9,6 C 19,2 C 3,1 km/h (1 Bft)
06.05.2013 15:15 17,6 C 60 % 1019,1 hPa 0,0 l/m 2,7 km/h (1 Bft) S-SW 202 9,7 C 19,2 C 3,4 km/h (1 Bft)
06.05.2013 15:20 17,1 C 61 % 1019,1 hPa 0,0 l/m 3,2 km/h (1 Bft) W-SW 247 9,5 C 18,8 C 2,4 km/h (1 Bft)
06.05.2013 15:25 16,9 C 62 % 1019,4 hPa 0,0 l/m 3,1 km/h (1 Bft) W-SW 247 9,6 C 18,5 C 2,1 km/h (1 Bft)
06.05.2013 15:30 16,4 C 62 % 1019,4 hPa 0,0 l/m 1,9 km/h (1 Bft) NO 45 9,1 C 18,2 C 1,9 km/h (1 Bft)
06.05.2013 15:35 16,4 C 64 % 1019,4 hPa 0,0 l/m 1,8 km/h (1 Bft) S 180 9,6 C 18,3 C 4,7 km/h (1 Bft)
06.05.2013 15:40 16,6 C 63 % 1019,4 hPa 0,0 l/m 2,1 km/h (1 Bft) S 180 9,5 C 17,9 C 4,3 km/h (1 Bft)
06.05.2013 15:45 16,5 C 64 % 1018,9 hPa 0,0 l/m 2,6 km/h (1 Bft) O-SO 112 9,7 C 17,6 C 1,8 km/h (1 Bft)
06.05.2013 15:50 16,3 C 65 % 1018,9 hPa 0,0 l/m 1,8 km/h (1 Bft) S 180 9,7 C 17,6 C 2,3 km/h (1 Bft)
06.05.2013 15:55 16,2 C 65 % 1018,9 hPa 0,0 l/m 1,3 km/h (1 Bft) W-SW 247 9,6 C 17,3 C 3,1 km/h (1 Bft)
06.05.2013 16:00 15,9 C 65 % 1018,9 hPa 0,0 l/m 2,1 km/h (1 Bft) O-SO 112 9,3 C 17,0 C 0,0 km/h (0 Bft)
06.05.2013 16:05 15,9 C 66 % 1018,8 hPa 0,0 l/m 1,6 km/h (1 Bft) SO 135 9,6 C 16,9 C 2,3 km/h (1 Bft)
06.05.2013 16:10 15,8 C 66 % 1018,8 hPa 0,0 l/m 0,8 km/h (0 Bft) S-SO 157 9,5 C 16,8 C 1,8 km/h (1 Bft)
06.05.2013 16:15 15,5 C 68 % 1018,8 hPa 0,0 l/m 0,6 km/h (0 Bft) O-NO 67 9,6 C 16,6 C 1,8 km/h (1 Bft)
06.05.2013 16:20 15,1 C 69 % 1018,8 hPa 0,0 l/m 0,3 km/h (0 Bft) O 90 9,5 C 16,3 C 0,0 km/h (0 Bft)
06.05.2013 16:25 15,1 C 70 % 1018,9 hPa 0,0 l/m 0,3 km/h (0 Bft) O 90 9,7 C 16,1 C 0,0 km/h (0 Bft)
06.05.2013 16:30 15,2 C 72 % 1018,9 hPa 0,0 l/m 0,2 km/h (0 Bft) N-NO 22 10,2 C 16,1 C 2,1 km/h (1 Bft)
06.05.2013 16:35 15,2 C 72 % 1018,9 hPa 0,0 l/m 0,8 km/h (0 Bft) S 180 10,2 C 16,1 C 2,3 km/h (1 Bft)
06.05.2013 16:40 15,3 C 72 % 1018,9 hPa 0,0 l/m 1,8 km/h (1 Bft) SO 135 10,3 C 15,9 C 4,5 km/h (1 Bft)
06.05.2013 16:45 15,3 C 72 % 1018,5 hPa 0,0 l/m 1,8 km/h (1 Bft) S-SO 157 10,3 C 15,8 C 2,4 km/h (1 Bft)
06.05.2013 16:50 15,4 C 73 % 1018,5 hPa 0,0 l/m 1,3 km/h (1 Bft) S-SO 157 10,6 C 15,8 C 1,8 km/h (1 Bft)
06.05.2013 16:55 15,4 C 73 % 1018,5 hPa 0,0 l/m 1,6 km/h (1 Bft) SO 135 10,6 C 15,9 C 3,7 km/h (1 Bft)
06.05.2013 17:00 15,3 C 72 % 1018,5 hPa 0,0 l/m 2,4 km/h (1 Bft) SO 135 10,3 C 15,8 C 3,1 km/h (1 Bft)
06.05.2013 17:05 15,3 C 73 % 1018,6 hPa 0,0 l/m 2,7 km/h (1 Bft) S-SO 157 10,5 C 15,8 C 3,9 km/h (1 Bft)
06.05.2013 17:10 15,3 C 74 % 1018,6 hPa 0,0 l/m 2,9 km/h (1 Bft) S 180 10,7 C 15,7 C 2,6 km/h (1 Bft)
06.05.2013 17:15 15,1 C 76 % 1018,6 hPa 0,0 l/m 2,4 km/h (1 Bft) S 180 10,9 C 15,5 C 1,9 km/h (1 Bft)
06.05.2013 17:20 15,1 C 76 % 1018,6 hPa 0,0 l/m 1,9 km/h (1 Bft) S 180 10,9 C 15,0 C 2,7 km/h (1 Bft)
06.05.2013 17:25 15,1 C 76 % 1018,8 hPa 0,0 l/m 2,4 km/h (1 Bft) S 180 10,9 C 14,7 C 4,3 km/h (1 Bft)
06.05.2013 17:30 15,4 C 78 % 1018,8 hPa 0,0 l/m 2,4 km/h (1 Bft) S 180 11,6 C 14,7 C 2,4 km/h (1 Bft)
06.05.2013 17:35 15,5 C 77 % 1018,8 hPa 0,0 l/m 2,1 km/h (1 Bft) S 180 11,5 C 14,8 C 2,3 km/h (1 Bft)
06.05.2013 17:40 15,5 C 77 % 1018,8 hPa 0,0 l/m 1,6 km/h (1 Bft) S 180 11,5 C 15,1 C 0,0 km/h (0 Bft)
06.05.2013 17:45 15,4 C 77 % 1018,6 hPa 0,0 l/m 1,1 km/h (1 Bft) S 180 11,4 C 15,3 C 2,4 km/h (1 Bft)
06.05.2013 17:50 15,3 C 78 % 1018,6 hPa 0,0 l/m 1,3 km/h (1 Bft) SO 135 11,5 C 15,3 C 0,0 km/h (0 Bft)
06.05.2013 17:55 15,3 C 79 % 1018,6 hPa 0,0 l/m 1,4 km/h (1 Bft) S 180 11,7 C 15,3 C 0,0 km/h (0 Bft)
06.05.2013 18:00 15,2 C 79 % 1018,6 hPa 0,0 l/m 1,3 km/h (1 Bft) S-SO 157 11,6 C 15,2 C 3,1 km/h (1 Bft)
06.05.2013 18:05 15,0 C 79 % 1018,4 hPa 0,0 l/m 1,6 km/h (1 Bft) S 180 11,4 C 15,0 C 2,9 km/h (1 Bft)
06.05.2013 18:10 14,9 C 80 % 1018,4 hPa 0,0 l/m 1,6 km/h (1 Bft) SO 135 11,5 C 14,8 C 0,0 km/h (0 Bft)
06.05.2013 18:15 14,8 C 80 % 1018,4 hPa 0,0 l/m 1,0 km/h (0 Bft) S-SW 202 11,4 C 14,6 C 1,8 km/h (1 Bft)
06.05.2013 18:20 14,7 C 80 % 1018,4 hPa 0,0 l/m 1,0 km/h (0 Bft) S 180 11,3 C 14,5 C 3,1 km/h (1 Bft)
06.05.2013 18:25 14,5 C 81 % 1018,3 hPa 0,0 l/m 1,4 km/h (1 Bft) S 180 11,3 C 14,3 C 2,9 km/h (1 Bft)
06.05.2013 18:30 14,4 C 81 % 1018,3 hPa 0,0 l/m 1,9 km/h (1 Bft) S 180 11,2 C 13,9 C 0,0 km/h (0 Bft)
06.05.2013 18:35 14,4 C 81 % 1018,3 hPa 0,0 l/m 2,1 km/h (1 Bft) S 180 11,2 C 13,8 C 2,6 km/h (1 Bft)
06.05.2013 18:40 14,4 C 82 % 1018,3 hPa 0,0 l/m 2,1 km/h (1 Bft) S 180 11,4 C 13,8 C 4,7 km/h (1 Bft)
06.05.2013 18:45 14,3 C 82 % 1018,1 hPa 0,0 l/m 2,6 km/h (1 Bft) S 180 11,3 C 13,8 C 4,2 km/h (1 Bft)
06.05.2013 18:50 14,1 C 81 % 1018,1 hPa 0,0 l/m 3,1 km/h (1 Bft) S 180 10,9 C 13,7 C 4,3 km/h (1 Bft)
06.05.2013 18:55 14,1 C 82 % 1018,1 hPa 0,0 l/m 3,2 km/h (1 Bft) S 180 11,1 C 13,7 C 4,0 km/h (1 Bft)
06.05.2013 19:00 14,2 C 82 % 1018,1 hPa 0,0 l/m 2,9 km/h (1 Bft) S-SO 157 11,2 C 13,9 C 3,2 km/h (1 Bft)
06.05.2013 19:05 14,2 C 82 % 1018,1 hPa 0,0 l/m 2,6 km/h (1 Bft) S 180 11,2 C 14,0 C 4,3 km/h (1 Bft)
06.05.2013 19:10 14,2 C 82 % 1018,1 hPa 0,0 l/m 2,4 km/h (1 Bft) S 180 11,2 C 14,1 C 2,3 km/h (1 Bft)
06.05.2013 19:15 14,2 C 82 % 1018,1 hPa 0,0 l/m 1,9 km/h (1 Bft) S 180 11,2 C 14,0 C 0,0 km/h (0 Bft)
06.05.2013 19:20 14,2 C 82 % 1018,1 hPa 0,0 l/m 1,1 km/h (1 Bft) S 180 11,2 C 14,0 C 0,0 km/h (0 Bft)
06.05.2013 19:25 14,3 C 83 % 1018,0 hPa 0,0 l/m 0,6 km/h (0 Bft) S 180 11,5 C 14,2 C 1,8 km/h (1 Bft)
06.05.2013 19:30 14,3 C 83 % 1018,0 hPa 0,0 l/m 1,0 km/h (0 Bft) SW 225 11,5 C 14,3 C 0,0 km/h (0 Bft)
06.05.2013 19:35 14,3 C 82 % 1018,0 hPa 0,0 l/m 1,1 km/h (1 Bft) W-SW 247 11,3 C 14,3 C 0,0 km/h (0 Bft)
06.05.2013 19:40 14,1 C 82 % 1018,0 hPa 0,0 l/m 0,2 km/h (0 Bft) O 90 11,1 C 14,3 C 0,0 km/h (0 Bft)
06.05.2013 19:45 14,0 C 82 % 1018,3 hPa 0,0 l/m 0,3 km/h (0 Bft) S 180 11,0 C 14,3 C 0,0 km/h (0 Bft)
06.05.2013 19:50 13,9 C 82 % 1018,3 hPa 0,0 l/m 1,0 km/h (0 Bft) S 180 10,9 C 14,0 C 1,8 km/h (1 Bft)
06.05.2013 19:55 13,8 C 82 % 1018,3 hPa 0,0 l/m 1,0 km/h (0 Bft) S 180 10,8 C 13,8 C 2,1 km/h (1 Bft)
06.05.2013 20:00 13,5 C 82 % 1018,3 hPa 0,0 l/m 0,8 km/h (0 Bft) SO 135 10,5 C 13,6 C 0,0 km/h (0 Bft)
06.05.2013 20:05 13,4 C 82 % 1018,2 hPa 0,0 l/m 0,5 km/h (0 Bft) SO 135 10,4 C 13,5 C 0,0 km/h (0 Bft)
06.05.2013 20:10 13,2 C 83 % 1018,2 hPa 0,0 l/m 0,2 km/h (0 Bft) S-SO 157 10,4 C 13,3 C 0,0 km/h (0 Bft)
06.05.2013 20:15 13,2 C 83 % 1018,2 hPa 0,0 l/m 0,3 km/h (0 Bft) SO 135 10,4 C 13,2 C 0,0 km/h (0 Bft)
06.05.2013 20:20 12,9 C 85 % 1018,2 hPa 0,0 l/m 0,2 km/h (0 Bft) O 90 10,4 C 13,0 C 0,0 km/h (0 Bft)
06.05.2013 20:25 12,7 C 85 % 1018,1 hPa 0,0 l/m 0,0 km/h (0 Bft) S 180 10,2 C 12,8 C 0,0 km/h (0 Bft)
06.05.2013 20:30 12,5 C 85 % 1018,1 hPa 0,0 l/m 0,6 km/h (0 Bft) S-SO 157 10,0 C 12,6 C 2,4 km/h (1 Bft)
06.05.2013 20:35 12,3 C 85 % 1018,1 hPa 0,0 l/m 1,0 km/h (0 Bft) O 90 9,9 C 12,4 C 0,0 km/h (0 Bft)
06.05.2013 20:40 12,0 C 85 % 1018,1 hPa 0,0 l/m 1,1 km/h (1 Bft) O 90 9,6 C 12,1 C 1,9 km/h (1 Bft)
06.05.2013 20:45 11,9 C 86 % 1017,8 hPa 0,0 l/m 1,1 km/h (1 Bft) O 90 9,6 C 11,9 C 1,9 km/h (1 Bft)
06.05.2013 20:50 11,8 C 86 % 1017,8 hPa 0,0 l/m 1,3 km/h (1 Bft) O 90 9,5 C 11,7 C 2,1 km/h (1 Bft)
06.05.2013 20:55 11,8 C 87 % 1017,8 hPa 0,0 l/m 1,8 km/h (1 Bft) O 90 9,7 C 11,6 C 2,6 km/h (1 Bft)
06.05.2013 21:00 11,9 C 87 % 1017,8 hPa 0,0 l/m 2,1 km/h (1 Bft) O-SO 112 9,8 C 11,6 C 0,0 km/h (0 Bft)
06.05.2013 21:05 11,9 C 87 % 1017,9 hPa 0,0 l/m 1,4 km/h (1 Bft) NO 45 9,8 C 11,7 C 2,1 km/h (1 Bft)
06.05.2013 21:10 12,0 C 87 % 1017,9 hPa 0,0 l/m 0,3 km/h (0 Bft) S 180 9,9 C 11,7 C 1,8 km/h (1 Bft)
06.05.2013 21:15 12,1 C 87 % 1017,9 hPa 0,0 l/m 0,3 km/h (0 Bft) NO 45 10,0 C 11,8 C 0,0 km/h (0 Bft)
06.05.2013 21:20 12,1 C 88 % 1017,9 hPa 0,0 l/m 1,1 km/h (1 Bft) O-SO 112 10,2 C 12,0 C 2,6 km/h (1 Bft)
06.05.2013 21:25 12,2 C 88 % 1018,0 hPa 0,0 l/m 1,6 km/h (1 Bft) O-SO 112 10,3 C 12,1 C 3,5 km/h (1 Bft)
06.05.2013 21:30 12,2 C 88 % 1018,0 hPa 0,0 l/m 1,8 km/h (1 Bft) SO 135 10,3 C 12,1 C 2,6 km/h (1 Bft)
06.05.2013 21:35 12,2 C 87 % 1018,0 hPa 0,0 l/m 1,8 km/h (1 Bft) O 90 10,1 C 12,1 C 0,0 km/h (0 Bft)
06.05.2013 21:40 12,1 C 87 % 1018,0 hPa 0,0 l/m 2,1 km/h (1 Bft) O 90 10,0 C 12,1 C 1,9 km/h (1 Bft)
06.05.2013 21:45 12,1 C 87 % 1018,1 hPa 0,0 l/m 1,8 km/h (1 Bft) S-SO 157 10,0 C 12,1 C 0,0 km/h (0 Bft)
06.05.2013 21:50 11,9 C 88 % 1018,1 hPa 0,0 l/m 1,0 km/h (0 Bft) SO 135 10,0 C 12,1 C 0,0 km/h (0 Bft)
06.05.2013 21:55 11,9 C 87 % 1018,1 hPa 0,0 l/m 0,5 km/h (0 Bft) S-SO 157 9,8 C 12,1 C 0,0 km/h (0 Bft)
06.05.2013 22:00 12,0 C 87 % 1018,1 hPa 0,0 l/m 0,8 km/h (0 Bft) S 180 9,9 C 12,1 C 5,8 km/h (2 Bft)
06.05.2013 22:05 12,1 C 87 % 1017,9 hPa 0,0 l/m 1,1 km/h (1 Bft) S-SO 157 10,0 C 12,1 C 1,6 km/h (1 Bft)
06.05.2013 22:10 12,1 C 87 % 1017,9 hPa 0,0 l/m 1,1 km/h (1 Bft) O-SO 112 10,0 C 12,1 C 0,0 km/h (0 Bft)
06.05.2013 22:15 12,0 C 87 % 1017,9 hPa 0,0 l/m 0,5 km/h (0 Bft) O 90 9,9 C 12,1 C 0,0 km/h (0 Bft)
06.05.2013 22:20 11,9 C 88 % 1017,9 hPa 0,0 l/m 0,6 km/h (0 Bft) W-SW 247 10,0 C 12,1 C 2,1 km/h (1 Bft)
06.05.2013 22:25 11,8 C 88 % 1017,9 hPa 0,0 l/m 1,1 km/h (1 Bft) NO 45 9,9 C 12,1 C 2,6 km/h (1 Bft)
06.05.2013 22:30 11,9 C 88 % 1017,9 hPa 0,0 l/m 1,8 km/h (1 Bft) S-SW 202 10,0 C 12,1 C 4,3 km/h (1 Bft)
06.05.2013 22:35 11,9 C 88 % 1017,9 hPa 0,0 l/m 1,4 km/h (1 Bft) NO 45 10,0 C 12,1 C 0,0 km/h (0 Bft)
06.05.2013 22:40 11,8 C 87 % 1017,9 hPa 0,0 l/m 1,0 km/h (0 Bft) S 180 9,7 C 12,0 C 2,1 km/h (1 Bft)
06.05.2013 22:45 11,8 C 87 % 1017,8 hPa 0,0 l/m 0,6 km/h (0 Bft) O-NO 67 9,7 C 12,0 C 0,0 km/h (0 Bft)
06.05.2013 22:50 11,8 C 87 % 1017,8 hPa 0,0 l/m 0,8 km/h (0 Bft) S-SO 157 9,7 C 11,9 C 3,2 km/h (1 Bft)
06.05.2013 22:55 11,8 C 87 % 1017,8 hPa 0,0 l/m 1,0 km/h (0 Bft) O-SO 112 9,7 C 11,9 C 0,0 km/h (0 Bft)
06.05.2013 23:00 11,7 C 87 % 1017,8 hPa 0,0 l/m 0,8 km/h (0 Bft) O 90 9,6 C 11,8 C 0,0 km/h (0 Bft)
06.05.2013 23:05 11,8 C 87 % 1017,8 hPa 0,0 l/m 0,6 km/h (0 Bft) S-SO 157 9,7 C 11,8 C 3,4 km/h (1 Bft)
06.05.2013 23:10 11,8 C 87 % 1017,8 hPa 0,0 l/m 1,1 km/h (1 Bft) S 180 9,7 C 11,9 C 0,0 km/h (0 Bft)
06.05.2013 23:15 11,8 C 87 % 1017,8 hPa 0,0 l/m 1,6 km/h (1 Bft) SO 135 9,7 C 11,9 C 3,1 km/h (1 Bft)
06.05.2013 23:20 11,8 C 87 % 1017,8 hPa 0,0 l/m 1,6 km/h (1 Bft) O-SO 112 9,7 C 11,8 C 2,6 km/h (1 Bft)
06.05.2013 23:25 11,8 C 87 % 1017,9 hPa 0,0 l/m 1,8 km/h (1 Bft) O-SO 112 9,7 C 11,8 C 1,9 km/h (1 Bft)
06.05.2013 23:30 11,7 C 87 % 1017,9 hPa 0,0 l/m 2,1 km/h (1 Bft) O 90 9,6 C 11,8 C 2,3 km/h (1 Bft)
06.05.2013 23:35 11,7 C 87 % 1017,9 hPa 0,0 l/m 2,1 km/h (1 Bft) O-SO 112 9,6 C 11,8 C 3,2 km/h (1 Bft)
06.05.2013 23:40 11,5 C 87 % 1017,9 hPa 0,0 l/m 2,3 km/h (1 Bft) S-SO 157 9,4 C 11,6 C 2,4 km/h (1 Bft)
06.05.2013 23:45 11,5 C 87 % 1017,8 hPa 0,0 l/m 2,3 km/h (1 Bft) S-SO 157 9,4 C 11,6 C 3,4 km/h (1 Bft)
06.05.2013 23:50 11,4 C 87 % 1017,8 hPa 0,0 l/m 2,9 km/h (1 Bft) S 180 9,3 C 11,5 C 4,2 km/h (1 Bft)
06.05.2013 23:55 11,3 C 87 % 1017,8 hPa 0,0 l/m 3,2 km/h (1 Bft) SO 135 9,2 C 11,4 C 3,2 km/h (1 Bft)
_ Min-Zeit 06:00 11:20 23:55 - 20:25 - - 06:05 06:05 23:10
Minimum _ 2,9 C 46 % 1017,8 hPa - 0,0 km/h (0 Bft) - - 1,8 C 2,3 C 0,0 km/h (0 Bft)
_ Max-Zeit 11:20 06:35 00:00 23:55 12:50 - - 17:55 12:15 12:55
Maximum _ 21,1 C 93 % 1021,2 hPa 0,0 l/m 5,8 km/h
W-SW (2 Bft)
- - 11,7 C 22,2 C 10,8 km/h
W-NW (2 Bft)
Durchschnitt _ 11,9 C 77 % 1019,1 hPa #0,0 l/m 1,6 km/h (1 Bft) S - 7,6 C 12,2 C 2,1 km/h (1 Bft)